FW1310 Weather Reports


time (UTC)temp
F
wind
direction
speed
knots
gust
knots
rain 1hr
in
rain 24hr
in
rain mn
in
humidity
%
barometer
mb
20260505214504 86 308 2.6 7.8 0.00 0.00 0.00 64 991.7
20260505213004 86 251 2.6 7.0 0.00 0.00 0.00 64 991.6
20260505212504 87 292 2.6 6.1 0.00 0.00 0.00 64 991.7
20260505212004 87 302 2.6 7.0 0.00 0.00 0.00 65 991.9
20260505211004 86 252 0.9 5.2 0.00 0.00 0.00 65 992.0
20260505210504 87 241 2.6 5.2 0.00 0.00 0.00 63 992.1
20260505205504 86 284 4.3 7.8 0.00 0.00 0.00 64 992.2
20260505205004 85 228 0.9 2.6 0.00 0.00 0.00 65 992.1
20260505204504 86 326 0.9 6.1 0.00 0.00 0.00 64 992.4
20260505204005 86 126 0.9 6.1 0.00 0.00 0.00 63 992.2
20260505203005 85 247 1.7 4.3 0.00 0.00 0.00 64 992.2
20260505202504 85 304 4.3 7.8 0.00 0.00 0.00 64 992.4
20260505202004 85 234 3.5 8.7 0.00 0.00 0.00 65 992.5
20260505201504 85 280 2.6 7.8 0.00 0.00 0.00 64 992.5
20260505201004 85 209 1.7 8.7 0.00 0.00 0.00 64 992.7
20260505200504 85 301 2.6 6.1 0.00 0.00 0.00 64 992.7
20260505195504 85 200 1.7 6.1 0.00 0.00 0.00 64 992.7
20260505195004 85 299 2.6 5.2 0.00 0.00 0.00 64 992.7
20260505194504 85 280 1.7 5.2 0.00 0.00 0.00 65 992.9
20260505194004 84 321 4.3 7.8 0.00 0.00 0.00 66 992.9
20260505193504 84 34 0.9 8.7 0.00 0.00 0.00 67 993.1
20260505193004 84 288 2.6 7.0 0.00 0.00 0.00 66 992.9
20260505192504 83 288 4.3 7.0 0.00 0.00 0.00 67 993.2
20260505192004 83 332 2.6 6.1 0.00 0.00 0.00 68 993.2
20260505191504 83 274 1.7 8.7 0.00 0.00 0.00 68 993.3
20260505191004 83 189 2.6 8.7 0.00 0.00 0.00 68 993.2
20260505190504 83 268 2.6 8.7 0.00 0.00 0.00 68 993.2
20260505190004 83 303 3.5 7.8 0.00 0.00 0.00 68 993.2
20260505185504 83 8 1.7 7.8 0.00 0.00 0.00 69 993.3
20260505185004 83 337 4.3 7.0 0.00 0.00 0.00 68 993.4
20260505184004 82 314 2.6 6.1 0.00 0.00 0.00 71 993.5
20260505183504 81 210 2.6 5.2 0.00 0.00 0.00 71 993.6
20260505182505 82 317 2.6 7.0 0.00 0.00 0.00 70 993.8
20260505182004 81 269 3.5 7.8 0.00 0.00 0.00 72 993.8
20260505181504 80 310 1.7 7.8 0.00 0.00 0.00 72 993.9
20260505181004 80 353 3.5 7.8 0.00 0.00 0.00 72 994.0
20260505180504 81 306 2.6 6.1 0.00 0.00 0.00 71 994.1
20260505180004 79 286 2.6 7.0 0.00 0.00 0.00 74 994.2
20260505175504 78 350 4.3 7.8 0.00 0.00 0.00 75 994.2
20260505175004 79 317 2.6 7.8 0.00 0.00 0.00 75 994.3
20260505174504 78 311 2.6 7.8 0.00 0.00 0.00 76 994.4
20260505174004 77 339 1.7 7.8 0.00 0.00 0.00 76 994.5
20260505173004 77 304 2.6 6.1 0.00 0.00 0.00 78 994.3
20260505172505 76 354 1.7 6.1 0.00 0.00 0.00 79 994.5
20260505172004 76 7 0.9 7.8 0.00 0.00 0.00 79 994.5
20260505171504 76 321 1.7 2.6 0.00 0.00 0.00 80 994.6
20260505171004 76 11 0.9 8.7 0.00 0.00 0.00 80 994.6
20260505170504 75 337 3.5 8.7 0.00 0.00 0.00 81 994.5
20260505170004 75 292 2.6 6.1 0.00 0.00 0.00 81 994.6
20260505165504 75 93 0.9 6.1 0.00 0.00 0.00 81 994.5
20260505165004 75 194 0.9 6.1 0.00 0.00 0.00 81 994.6
20260505164504 75 275 2.6 7.0 0.00 0.00 0.00 81 994.5
20260505164004 74 271 2.6 10.4 0.00 0.00 0.00 82 994.5
20260505163504 75 317 3.5 10.4 0.00 0.00 0.00 81 994.5
20260505163004 74 38 1.7 5.2 0.00 0.00 0.00 82 994.5
20260505162505 74 356 1.7 5.2 0.00 0.00 0.00 83 994.7
20260505162004 73 345 1.7 6.1 0.00 0.00 0.00 84 994.8
20260505160504 73 38 1.7 7.0 0.00 0.00 0.00 85 994.5
20260505153005 73 311 2.6 7.8 0.00 0.00 0.00 85 994.5
20260505152504 72 336 2.6 7.8 0.00 0.00 0.00 85 994.6
20260505152004 72 21 1.7 7.8 0.00 0.00 0.00 86 994.5
20260505151504 72 249 1.7 4.3 0.00 0.00 0.00 86 994.6
20260505151004 72 98 1.7 6.1 0.00 0.00 0.00 86 994.5
20260505150504 72 317 0.9 7.8 0.00 0.00 0.00 87 994.6
20260505140504 71 294 1.7 6.1 0.00 0.00 0.00 87 993.9
20260505125004 70 307 3.5 7.0 0.00 0.00 0.00 88 993.3
20260505124504 70 268 2.6 5.2 0.00 0.00 0.00 88 993.4
20260505124004 70 31 4.3 7.0 0.00 0.00 0.00 88 993.3
20260505123504 70 307 1.7 7.8 0.00 0.00 0.00 88 993.2
20260505123004 70 291 2.6 6.1 0.00 0.00 0.00 88 993.1
20260505122004 70 5 4.3 7.0 0.00 0.00 0.00 89 992.9
20260505121504 69 293 3.5 7.0 0.00 0.00 0.00 89 992.7
20260505121004 69 348 3.5 10.4 0.00 0.00 0.00 89 992.7
20260505120504 69 278 2.6 7.8 0.00 0.00 0.00 89 992.5
20260505120005 69 309 2.6 10.4 0.00 0.00 0.00 89 992.5
20260505115504 69 345 0.9 2.6 0.00 0.00 0.00 89 992.4
20260505115004 69 208 1.7 5.2 0.00 0.00 0.00 89 992.3
20260505114004 69 290 0.9 6.1 0.00 0.00 0.00 89 992.3
20260505112504 70 351 2.6 5.2 0.00 0.00 0.00 89 992.5
20260505112004 70 288 3.5 8.7 0.00 0.00 0.00 88 992.4
20260505111504 70 314 2.6 7.0 0.00 0.00 0.00 88 992.5
20260505111004 70 270 3.5 7.0 0.00 0.00 0.00 88 992.2
20260505110504 70 0 2.6 7.0 0.00 0.00 0.00 88 992.4
20260505102004 70 336 1.7 7.8 0.00 0.00 0.00 88 992.7
20260505101504 70 315 2.6 7.8 0.00 0.00 0.00 88 992.7
20260505100504 70 338 1.7 5.2 0.00 0.00 0.00 88 992.9
20260505100004 70 335 2.6 5.2 0.00 0.00 0.00 88 992.8
20260505095504 70 324 2.6 10.4 0.00 0.00 0.00 88 993.0
20260505095004 70 283 2.6 7.8 0.00 0.00 0.00 88 992.9
20260505094504 70 273 3.5 8.7 0.00 0.00 0.00 88 993.0
20260505094004 70 307 2.6 8.7 0.00 0.00 0.00 88 992.8
20260505093504 70 101 3.5 7.8 0.00 0.00 0.00 88 992.9
20260505092504 70 12 1.7 5.2 0.00 0.00 0.00 88 992.8
20260505091004 70 268 4.3 11.3 0.00 0.00 0.00 87 993.1
20260505090504 70 321 2.6 7.0 0.00 0.00 0.00 87 993.1
20260505085504 70 18 4.3 7.8 0.00 0.00 0.00 87 993.1
20260505084504 70 18 4.3 11.3 0.00 0.00 0.00 87 993.4
20260505084004 70 333 2.6 7.0 0.00 0.00 0.00 87 993.2
20260505083504 70 296 2.6 7.0 0.00 0.00 0.00 87 993.2
20260505083004 70 324 4.3 7.0 0.00 0.00 0.00 86 993.2
20260505082504 70 297 5.2 10.4 0.00 0.00 0.00 86 993.3
20260505082004 70 225 2.6 7.0 0.00 0.00 0.00 86 993.3
20260505081504 70 294 2.6 8.7 0.00 0.00 0.00 86 993.3
20260505081004 70 261 3.5 7.8 0.00 0.00 0.00 86 993.3
20260505080504 70 324 2.6 8.7 0.00 0.00 0.00 86 993.4
20260505080004 70 287 4.3 12.2 0.00 0.00 0.00 86 993.4
20260505075504 70 322 2.6 12.2 0.00 0.00 0.00 86 993.5
20260505074504 70 322 2.6 8.7 0.00 0.00 0.00 86 993.5
20260505073504 70 344 2.6 7.8 0.00 0.00 0.00 86 993.8
20260505072504 70 312 3.5 7.8 0.00 0.00 0.00 86 993.9
20260505072004 70 315 4.3 8.7 0.00 0.00 0.00 86 994.1
20260505071504 70 344 4.3 7.8 0.00 0.00 0.00 86 994.1
20260505071004 70 281 1.7 10.4 0.00 0.00 0.00 86 994.3
20260505070504 70 331 2.6 10.4 0.00 0.00 0.00 86 994.2
20260505070004 70 63 2.6 10.4 0.00 0.00 0.00 86 994.3
20260505065504 70 357 2.6 6.1 0.00 0.00 0.00 86 994.4
20260505065004 70 220 5.2 12.2 0.00 0.00 0.00 86 994.5
20260505063004 70 296 2.6 7.0 0.00 0.00 0.00 85 994.4
20260505062504 71 264 4.3 7.0 0.00 0.00 0.00 85 994.6
20260505062005 71 286 2.6 7.0 0.00 0.00 0.00 85 994.7
20260505061505 71 252 4.3 8.7 0.00 0.00 0.00 85 994.6
20260505061004 71 267 1.7 4.3 0.00 0.00 0.00 85 994.7
20260505060504 71 318 4.3 8.7 0.00 0.00 0.00 85 994.7
20260505060005 71 280 1.7 7.8 0.00 0.00 0.00 85 994.7
20260505055505 71 264 4.3 11.3 0.00 0.00 0.00 85 994.6
20260505055005 71 263 3.5 7.8 0.00 0.00 0.00 84 994.5
20260505054504 71 315 4.3 7.0 0.00 0.00 0.00 84 994.6
20260505054004 71 298 6.1 11.3 0.00 0.00 0.00 84 994.6
20260505053504 71 273 3.5 7.8 0.00 0.00 0.00 84 994.7
20260505053005 71 341 4.3 11.3 0.00 0.00 0.00 84 994.6
20260505051504 71 268 4.3 11.3 0.00 0.00 0.00 84 994.6
20260505050504 71 311 4.3 7.8 0.00 0.00 0.00 84 994.4
20260505041504 72 320 2.6 5.2 0.00 0.00 0.00 82 994.6
20260505040504 72 284 1.7 5.2 0.00 0.00 0.00 82 994.5
20260505040005 72 324 1.7 5.2 0.00 0.00 0.00 81 994.5
20260505035004 72 285 1.7 5.2 0.00 0.00 0.00 81 994.5
20260505033504 73 300 2.6 7.8 0.00 0.00 0.00 80 994.4
20260505031004 73 337 2.6 5.2 0.00 0.00 0.00 78 994.4
20260505030504 73 298 2.6 8.7 0.00 0.00 0.00 77 994.6
20260505030004 74 237 2.6 7.8 0.00 0.00 0.00 77 994.5
20260505025504 74 274 2.6 7.8 0.00 0.00 0.00 76 994.5
20260505025005 74 270 3.5 6.1 0.00 0.00 0.00 75 994.7
20260505024504 74 343 1.7 5.2 0.00 0.00 0.00 74 994.5
20260505024005 74 217 1.7 4.3 0.00 0.00 0.00 74 994.6
20260505023504 74 271 1.7 4.3 0.00 0.00 0.00 73 994.6
20260505023004 74 266 0.9 2.6 0.00 0.00 0.00 73 994.6
20260505022504 74 283 0.9 5.2 0.00 0.00 0.00 72 994.6
20260505022005 75 280 0.9 2.6 0.00 0.00 0.00 72 994.4
20260505021504 75 292 1.7 4.3 0.00 0.00 0.00 72 994.4
20260505021005 75 290 2.6 6.1 0.00 0.00 0.00 71 994.3
20260505020504 75 103 2.6 6.1 0.00 0.00 0.00 71 994.2
20260505020004 75 198 4.3 8.7 0.00 0.00 0.00 71 994.3
20260505015504 75 285 1.7 7.8 0.00 0.00 0.00 70 994.2
20260505015004 75 0 1.7 6.1 0.00 0.00 0.00 70 994.3
20260505014504 75 302 1.7 4.3 0.00 0.00 0.00 69 994.4
20260505014005 75 274 1.7 4.3 0.00 0.00 0.00 69 994.4
20260505013504 76 289 1.7 6.1 0.00 0.00 0.00 67 994.4
20260505013004 76 345 2.6 7.0 0.00 0.00 0.00 67 994.5
20260505012504 76 260 2.6 7.8 0.00 0.00 0.00 67 994.3
20260505011504 76 292 2.6 6.1 0.00 0.00 0.00 66 994.3
20260505011004 76 309 4.3 8.7 0.00 0.00 0.00 65 994.3
20260505010505 77 224 2.6 10.4 0.00 0.00 0.00 65 994.3
20260505010005 77 19 5.2 7.8 0.00 0.00 0.00 64 994.4
20260505005504 77 222 2.6 7.8 0.00 0.00 0.00 64 994.3
20260505005005 77 268 1.7 5.2 0.00 0.00 0.00 64 994.3
20260505004504 77 301 2.6 7.8 0.00 0.00 0.00 63 994.3
20260505004004 78 246 3.5 8.7 0.00 0.00 0.00 63 994.3
20260505003505 78 299 2.6 7.8 0.00 0.00 0.00 63 994.3
20260505003004 78 297 4.3 8.7 0.00 0.00 0.00 62 994.4
20260505002504 79 311 2.6 7.0 0.00 0.00 0.00 62 994.3
20260505002004 79 336 2.6 8.7 0.00 0.00 0.00 61 994.2
20260505001504 79 340 1.7 8.7 0.00 0.00 0.00 61 994.2
20260505001004 79 294 3.5 8.7 0.00 0.00 0.00 60 994.2
20260505000505 80 353 6.1 14.8 0.00 0.00 0.00 60 994.0
20260505000004 80 334 4.3 13.0 0.00 0.00 0.00 60 994.1
20260504235505 80 346 4.3 12.2 0.00 0.00 0.00 60 994.3
20260504234504 81 331 3.5 7.0 0.00 0.00 0.00 59 994.5
20260504234004 81 331 2.6 7.0 0.00 0.00 0.00 58 994.3
20260504233504 81 165 4.3 11.3 0.00 0.00 0.00 59 994.3
20260504233005 81 276 4.3 7.0 0.00 0.00 0.00 58 994.4
20260504232504 81 296 2.6 7.0 0.00 0.00 0.00 58 994.5
20260504232004 81 303 4.3 7.0 0.00 0.00 0.00 58 994.6
20260504231505 81 329 2.6 7.8 0.00 0.00 0.00 58 994.5
20260504231004 81 340 4.3 7.8 0.00 0.00 0.00 57 994.5
20260504230504 81 278 4.3 8.7 0.00 0.00 0.00 57 994.7
20260504230005 82 118 2.6 12.2 0.00 0.00 0.00 56 994.7
20260504225504 83 308 4.3 12.2 0.00 0.00 0.00 55 994.7
20260504225005 83 259 2.6 8.7 0.00 0.00 0.00 55 994.7
20260504224005 83 300 2.6 7.8 0.00 0.00 0.00 56 994.9
20260504223505 83 228 4.3 8.7 0.00 0.00 0.00 55 994.9
20260504223004 83 282 2.6 7.0 0.00 0.00 0.00 55 994.9
20260504222505 83 212 3.5 7.8 0.00 0.00 0.00 55 994.8
20260504222005 83 304 4.3 8.7 0.00 0.00 0.00 56 995.0
20260504221504 83 303 2.6 8.7 0.00 0.00 0.00 55 995.2
20260504221005 83 347 2.6 12.2 0.00 0.00 0.00 55 995.1
20260504220504 83 302 4.3 10.4 0.00 0.00 0.00 56 995.0
20260504215504 83 279 3.5 10.4 0.00 0.00 0.00 55 995.3
20260504215004 83 275 4.3 10.4 0.00 0.00 0.00 55 995.2